オルバース彗星

13P/Olbers (2024)

English version
Home page
Updated on June 5, 2024

---------------------------------------------------------------------

・ プロフィール

検出日 2023年8月13日
検出光度 21.6等
検出者 A. Hale (Las Cumbres Observatory)

・ 写真集

・ 軌道要素

Epoch 2024 Mar. 31.0 TT = JDT 2460400.5
T 2024 June 30.04546 TT                                 Rudenko
q   1.1754580            (2000.0)            P               Q
n   0.01421000     Peri.   64.41653     -0.60854881     -0.37163172
a  16.8813328      Node    85.84764     +0.18556404     -0.92570076
e   0.9303694      Incl.   44.66476     +0.77151431     -0.07048382
P  69.4
>From 1324 observations 2023 Oct. 8-2024 May 11, mean residual 0".4.
     Nongravitational parameters A1 = +0.07, A2 = -1.0589.

・ 星図

・ 光度変化

        m1 = 4.0 + 5 logΔ + 24.0 log r(t + 15)  [   ,-15]  (              〜2024年 6月15日)
        m1 = 4.6 + 5 logΔ + 15.0 log r(t + 15)  [-15,   ]  (2024年 6月15日〜              )

---------------------------------------------------------------------

軌道要素はM.P.E.C. 2024-J304に掲載されたものです。
星図はステラナビゲータ Ver.10 (アストロアーツ) で作成したものです。
光度グラフはComet for Windowsで作成したものです。

---------------------------------------------------------------------

Copyright(C) Seiichi Yoshida (comet@aerith.net). All rights reserved.